Regional Weather Roundup
Issued by NWS Green Bay, WI

Home | Current Version | Previous Version | Text Only | Print | Product List | Glossary On
Versions: 1 2 3 4 5 6 7 8 9 10 11 12 13 14 15 16 17 18 19 20 21 22 23 24 25 26 27 28 29 30 31 32 33 34 35 36 37 38 39 40 41 42 43 44 45 46 47 48 49 50
290
ASUS43 KGRB 271711
RWRGRB

NORTH-CENTRAL AND NORTHEAST WISCONSIN REGIONAL WEATHER ROUNDUP
NATIONAL WEATHER SERVICE GREEN BAY WI
1100 AM CST MON FEB 27 2017

WIZ005-009-010>012-018-019-271800-
NORTH CENTRAL WISCONSIN

CITY           SKY/WX    TMP DP  RH WIND       PRES   REMARKS
IRONWOOD       PTSUNNY   29  21  72 S10       29.97F
MANITOWISH WTR CLOUDY    29  21  72 S9        29.96S
ARBOR VITAE    PTSUNNY   32  23  69 S10         N/A
EAGLE RIVER    MOSUNNY   32  19  57 S7        29.98F
LAND O LAKES   CLOUDY    31  19  63 S8G16     30.00S
RHINELANDER    CLOUDY    35  20  54 S15G24    30.00S
PHILLIPS       CLOUDY    35  21  58 S15G21    29.97S
ANTIGO         SUNNY     32  22  65 S13       30.04F
TOMAHAWK       SUNNY     36  19  50 S6        30.01S
MERRILL        NOT AVBL
$$

WIZ013-073-271800-
NORTHEAST WISCONSIN

CITY           SKY/WX    TMP DP  RH WIND       PRES   REMARKS
IRON MOUNTAIN  CLOUDY    27  13  55 S10       30.06S
MARINETTE      SUNNY     34  23  64 S9        30.13S
OCONTO         SUNNY     33  22  64 S9        30.12S
$$

WIZ017-030-035>037-045-271800-
CENTRAL WISCONSIN

CITY           SKY/WX    TMP DP  RH WIND       PRES   REMARKS
MEDFORD        SUNNY     31  21  65 S13       30.02S
WAUSAU         SUNNY     34  20  56 S12       30.04S
MOSINEE        MOSUNNY   36  21  55 S12G17    30.06S
MARSHFIELD     SUNNY     35  20  54 S13       30.04R
WISC RAPIDS    SUNNY     37  21  52 SW9       30.08S
STEVENS POINT  SUNNY     34  20  57 S13       30.08R
WAUPACA        SUNNY     41  22  47 S8        30.10F
SHAWANO        SUNNY     38  22  52 S7        30.11R
CLINTONVILLE   SUNNY     36  23  60 S7        30.10S
WAUTOMA        SUNNY     38  21  50 S8        30.11R
$$

WIZ038-039-048-051-271800-
FOX VALLEY

CITY           SKY/WX    TMP DP  RH WIND       PRES   REMARKS
NWS GREEN BAY  SUNNY     35  25  66 S9        30.12S
APPLETON       MOSUNNY   36  21  55 SE9       30.10R
OSHKOSH        SUNNY     35  23  61 S12       30.11S
FOND DU LAC    SUNNY     37  23  56 S12       30.11F
$$

WIZ022-050-052-271800-
EAST CENTRAL WISCONSIN

CITY           SKY/WX    TMP DP  RH WIND       PRES   REMARKS
EPHRAIM        PTSUNNY   33  27  79 S14       30.11F
WASHINGTON ISL FAIR      33  23  67 S13       30.13S
STURGEON BAY   SUNNY     35  24  64 S17       30.12F
MANITOWOC      SUNNY     35  26  69 S13       30.15S
SHEBOYGAN      SUNNY     36  27  69 S10       30.14S
$$

LMZ563-521-522-541>543-271800-
LAKESHORE

STATION/POSITION TIME  TEMP    WIND        PRES    VSBY  WAVE
                       AIR SEA DIR/SP/G                  HT/PER
                 (UTC) (F)     (DEG/KT/KT) (MB)    (MI)  (FT/S)
SHEBOYGAN LKSHOR 1700   35     170/ 13/ 14 1021.2F
KEWAUNEE LKSHORE 1648   33     180/ 14/ 17 1020.3S
NORTHPORT PIER   1640   33     150/ 12/ 17 1020.3F
SISTER BAY LKSHO 1635          180/ 18/ 22   N/A
CHAMBERS ISLAND  1640   36     160/  5/ 15 1019.6F
MENOMINEE LKSHOR 1648   31     190/  7/  8 1019.3F
$$




USA.gov is the U.S. government's official web portal to all federal, state and local government web resources and services.